Regional Weather Roundup
Issued by NWS

Home | Current Version | Previous Version | Text Only | Print | Product List | Glossary Off
Versions: 1 2 3 4 5 6 7 8 9 10 11 12 13 14 15 16 17 18 19 20 21 22 23 24 25 26 27 28 29 30 31 32 33 34 35 36 37 38 39 40 41 42 43 44 45 46 47 48 49 50

000
ASUS43 KMKX 280121
RWRWI

WISCONSIN REGIONAL WEATHER ROUNDUP
NATIONAL WEATHER SERVICE MILWAUKEE/SULLIVAN WI
700 PM CST THU NOV 27 2014

NOTE: "FAIR" INDICATES FEW OR NO CLOUDS BELOW 12,000 FEET WITH NO
SIGNIFICANT WEATHER AND/OR OBSTRUCTIONS TO VISIBILITY.

WIZ001-002-006>008-014>016-023>028-280200-
NORTHWEST WISCONSIN

CITY           SKY/WX    TMP DP  RH WIND       PRES   REMARKS
SUPERIOR ARPT  PTCLDY     4  -3  72 SW3       30.36F
ASHLAND        PTCLDY    -2  -6  83 S5        30.37F WCI -12
HAYWARD        PTCLDY    -3  -6  87 CALM      30.33F
SIREN          PTCLDY     1  -4  78 CALM      30.35F
CUMBERLAND     PTCLDY     1  -6  71 CALM      30.32F
RICE LAKE      PTCLDY     3  -3  75 CALM      30.36F
CHETEK         PTCLDY    -1  -6  80 CALM      30.35F
LADYSMITH      PTCLDY     1  -4  79 CALM      30.36S
EAU CLAIRE     PTCLDY     2  -3  80 CALM      30.37F
MENOMONIE      PTCLDY     5  -2  74 CALM      30.38F
NEW RICHMOND   PTCLDY     8  -2  65 SW3       30.36F
OSCEOLA        PTCLDY     8   0  68 CALM      30.39F
$$

WIZ003>005-009-010-017-018-280200-
NORTH CENTRAL WISCONSIN

CITY           SKY/WX    TMP DP  RH WIND       PRES   REMARKS
MANITOWISH WTR PTCLDY    -8 -12  83 CALM      30.28F FOG
ARBOR VITAE    PTCLDY    -1  -5  84 CALM      30.29R
WOODRUFF       PTCLDY    -1  -5  84 CALM      30.29R
RHINELANDER    PTCLDY    -6  -8  91 W5        30.29S WCI -17
EAGLE RIVER    PTCLDY     0  -4  83 CALM      30.28S
LAND O LAKES   PTCLDY    -9 -13  83 CALM      30.28F
PHILLIPS       PTCLDY    -6  -8  90 CALM      30.30F
TOMAHAWK       CLEAR     -7 -11  83 CALM      30.30F
MEDFORD        PTCLDY     1  -4  80 CALM      30.30F
MERRILL        CLEAR     -1  -3  89 CALM      30.32S
$$

WIZ029-030-035-036-043>047-280200-
CENTRAL WISCONSIN

CITY           SKY/WX    TMP DP  RH WIND       PRES   REMARKS
WAUSAU         CLEAR      5  -1  76 NW6       30.32F WCI  -6
MOSINEE        CLEAR      3   0  85 W8        30.34F WCI -10
MARSHFIELD     PTCLDY     1  -5  75 NW6       30.34S WCI -10
STEVENS POINT  CLEAR      1  -2  88 CALM      30.35F
WAUPACA        FAIR       9   2  73 W5        30.38S WCI   1
WAUTOMA        CLEAR      0  -3  87 CALM      30.39S
WISC RAPIDS    PTCLDY     2  -2  83 CALM      30.38S
CAMP DOUGLAS   PTCLDY     1  -1  91 CALM      30.39R
$$

WIZ011>013-019>022-031-037>040-048>050-280200-
NORTHEAST WISCONSIN

CITY           SKY/WX    TMP DP  RH WIND       PRES   REMARKS
ANTIGO         PTCLDY    -6  -8  89 CALM      30.30S
SHAWANO        CLEAR     11   5  75 W3        30.37S
OCONTO         CLEAR      2   0  92 CALM      30.38R
STURGEON BAY   CLEAR     14   1  57 NW7       30.35S WCI   4
GREEN BAY      CLEAR      7   2  80 W6        30.38S WCI  -3
MANITOWOC      CLEAR     10   6  84 W6        30.38F WCI   0
APPLETON       CLEAR      7   1  78 W5        30.37R WCI  -2
CLINTONVILLE   CLEAR      9   3  78 W5        30.37R WCI   0
OSHKOSH        CLEAR      8   0  69 MISG      30.38S
$$

WIZ032>034-041-042-053>061-280200-
SOUTHWEST WISCONSIN

CITY           SKY/WX    TMP DP  RH WIND       PRES   REMARKS
LA CROSSE      PTCLDY     9   0  67 NE3       30.40F
SPARTA         PTCLDY     0  -2  90 CALM      30.40F
VIROQUA        PTCLDY     6  -2  68 CALM      30.34F
BOSCOBEL       CLEAR      6   0  76 CALM      30.41F
PRAIRIE DU CHI PTCLDY    10   1  69 CALM      30.42S
PLATTEVILLE    PTCLDY    11  -1  58 CALM      30.38F
$$

WIZ056-057-062-063-064-067-068-280200-
SOUTH CENTRAL WISCONSIN

CITY           SKY/WX    TMP DP  RH WIND       PRES   REMARKS
REEDSBURG      PTCLDY     6   2  84 CALM      30.39S
BARABOO/DELLS  PTCLDY     3   0  87 CALM      30.39R
LONE ROCK      FAIR       7  -1  70 CALM      30.41S
MINERAL POINT  PTCLDY    12   0  57 CALM      30.36F
MADISON        PTCLDY     6   3  87 CALM      30.39S
MIDDLETON      PTCLDY     3  -2  82 CALM      30.40R
WATERTOWN      CLEAR      7   5  91 CALM      30.38S
MONROE         PTCLDY    14   5  67 W5        30.37S WCI   6
JANESVILLE     CLEAR     10   7  85 CALM      30.39F
$$

WIZ051-052-058>065-066-070>072-280200-
SOUTHEAST WISCONSIN

CITY           SKY/WX    TMP DP  RH WIND       PRES   REMARKS
MILWAUKEE      FAIR      17   7  64 NW5       30.39F WCI  10
WAUKESHA       MOCLDY    12   7  79 W8        30.39S WCI   1
MILWAUKEE/TIMM CLEAR     14   7  73 W5        30.40F WCI   6
RACINE         CLEAR     16   8  71 W5        30.41S WCI   9
BURLINGTON     CLEAR      9   6  86 CALM      30.39S
KENOSHA        FLURRIES  14   7  73 NW5       30.39F WCI   6
FOND DU LAC    CLEAR      9   1  70 W6        30.38F WCI  -1
SHEBOYGAN      CLEAR      9   5  84 W3        30.38S
WEST BEND      PTCLDY    12   7  79 CALM      30.37F
JUNEAU         CLEAR      7   4  87 CALM      30.39S
$$

LSZ147-162-280200-
LAKE SUPERIOR

STATION/POSITION TIME  TEMP    WIND        PRES    WAVE
                       AIR SEA DIR/SP/G            HT/PER
                 (UTC) (F)     (DEG/KT/KT) (MB)    (FT/S)
DEVILS ISLAND    0100   12     220/ 11/ 16 1029.2F
PORT WING        0000    5     170/  4/  6 1028.8F
SAXON HARBOR     0006    3      CALM  / 26 1028.8F
$$

LMZ867-665-643>646-280200-
LAKE MICHIGAN

STATION/POSITION TIME  TEMP    WIND        PRES    WAVE
                       AIR SEA DIR/SP/G            HT/PER
                 (UTC) (F)     (DEG/KT/KT) (MB)    (FT/S)
CHAMBERS ISLAND  0000   16     300/ 10/ 16 1028.1R
N MID LAKE BUOY  0050   19 42  310/ 17/ 21 1028.0S   3/ 4
NORTHPORT PIER   0111   17     310/  9/ 16 1027.8S
SISTER BAY       2328          340/ 14/ 17   N/A
KEWAUNEE LAKESHO 0100   11     300/  3/  5 1027.6R
SHEBOYGAN LAKESH 0100   15 34  290/  7/  9 1030.5F
PORT WASHINGTON  0000   16     270/  2/  4 1030.1R
MILWAUKEE LAKESH 0100   18     290/  5/  8   N/A
S MID LAKE BUOY  0050   24 42  300/ 14/ 17 1029.5R   5/ 7
KENOSHA   LAKESH 0100   17     300/  6/  9 1029.1F
$$

TC  - TEMPERATURE IN CELSIUS
VSB - VISIBILITY IN STATUTE MILES
WCI - WIND CHILL INDEX
HX  - HEAT INDEX



USA.gov is the U.S. government's official web portal to all federal, state and local government web resources and services.